| time (UTC) | temp C | wind direction | speed KPH | gust KPH | rain 1hr cm | rain 24hr cm | rain mn cm | humidity % | barometer mb |
| 20260503193002 | 23 | 268 | 4.8 | 16.1 | 0.00 | 0.00 | 0.00 | 48 | 1013.1 |
| 20260503191601 | 23 | 284 | 6.4 | 14.5 | 0.00 | 0.00 | 0.00 | 50 | 1013.2 |
| 20260503190054 | 23 | 286 | 6.4 | 16.1 | 0.00 | 0.00 | 0.00 | 50 | 1013.4 |
| 20260503184530 | 26 | 288 | 3.2 | 14.5 | 0.00 | 0.00 | 0.00 | 46 | 1013.4 |
| 20260503183024 | 25 | 296 | 8.0 | 12.9 | 0.00 | 0.00 | 0.00 | 46 | 1013.6 |
| 20260503181513 | 25 | 278 | 3.2 | 11.3 | 0.00 | 0.00 | 0.00 | 48 | 1013.7 |
| 20260503180009 | 25 | 228 | 3.2 | 12.9 | 0.00 | 0.00 | 0.00 | 47 | 1013.7 |
| 20260503174502 | 25 | 299 | 0.0 | 8.0 | 0.00 | 0.00 | 0.00 | 47 | 1013.8 |
| 20260503173001 | 26 | 237 | 3.2 | 12.9 | 0.00 | 0.00 | 0.00 | 52 | 1013.8 |
| 20260503171557 | 25 | 278 | 1.6 | 9.7 | 0.00 | 0.00 | 0.00 | 53 | 1013.8 |
| 20260503120104 | 12 | 95 | 3.2 | 4.8 | 0.00 | 0.00 | 0.00 | 79 | 1014.5 |
| 20260503081514 | 12 | 86 | 1.6 | 4.8 | 0.00 | 0.00 | 0.00 | 88 | 1015.1 |
| 20260503071539 | 13 | 75 | 4.8 | 6.4 | 0.00 | 0.00 | 0.00 | 84 | 1015.2 |
| 20260503054539 | 14 | 285 | 0.0 | 1.6 | 0.00 | 0.00 | 0.00 | 78 | 1015.3 |
| 20260503053038 | 14 | 285 | 0.0 | 3.2 | 0.00 | 0.00 | 0.00 | 78 | 1015.5 |
| 20260503051524 | 15 | 284 | 0.0 | 0.0 | 0.00 | 0.00 | 0.00 | 76 | 1015.5 |
| 20260503050020 | 15 | 284 | 0.0 | 3.2 | 0.00 | 0.00 | 0.00 | 74 | 1015.4 |
| 20260503044535 | 15 | 284 | 0.0 | 3.2 | 0.00 | 0.00 | 0.00 | 75 | 1015.2 |
| 20260503043018 | 15 | 284 | 0.0 | 3.2 | 0.00 | 0.00 | 0.00 | 75 | 1015.0 |
| 20260503041543 | 15 | 284 | 0.0 | 0.0 | 0.00 | 0.00 | 0.00 | 74 | 1014.8 |
| 20260503040038 | 16 | 284 | 0.0 | 3.2 | 0.00 | 0.00 | 0.00 | 72 | 1014.7 |
| 20260503034556 | 16 | 284 | 0.0 | 3.2 | 0.00 | 0.00 | 0.00 | 74 | 1014.4 |
| 20260503033049 | 16 | 284 | 0.0 | 4.8 | 0.00 | 0.00 | 0.00 | 74 | 1014.2 |
| 20260503031506 | 17 | 279 | 1.6 | 4.8 | 0.00 | 0.00 | 0.00 | 73 | 1014.0 |
| 20260503030014 | 17 | 284 | 3.2 | 8.0 | 0.00 | 0.00 | 0.00 | 71 | 1013.8 |
| 20260503024604 | 18 | 246 | 1.6 | 6.4 | 0.00 | 0.00 | 0.00 | 70 | 1013.7 |
| 20260503023058 | 18 | 264 | 1.6 | 9.7 | 0.00 | 0.00 | 0.00 | 68 | 1013.6 |
| 20260503021553 | 19 | 277 | 1.6 | 8.0 | 0.00 | 0.00 | 0.00 | 68 | 1013.6 |
| 20260503020014 | 20 | 238 | 6.4 | 12.9 | 0.00 | 0.00 | 0.00 | 65 | 1013.5 |
| 20260503014513 | 21 | 242 | 4.8 | 14.5 | 0.00 | 0.00 | 0.00 | 62 | 1013.6 |
| 20260503013004 | 22 | 274 | 4.8 | 12.9 | 0.00 | 0.00 | 0.00 | 59 | 1013.5 |
| 20260503011608 | 22 | 274 | 1.6 | 14.5 | 0.00 | 0.00 | 0.00 | 59 | 1013.6 |
| 20260503011502 | 22 | 270 | 3.2 | 16.1 | 0.00 | 0.00 | 0.00 | 59 | 1013.6 |
| 20260503004550 | 22 | 249 | 3.2 | 16.1 | 0.00 | 0.00 | 0.00 | 60 | 1013.6 |
| 20260503003046 | 21 | 264 | 4.8 | 12.9 | 0.00 | 0.00 | 0.00 | 59 | 1013.7 |
| 20260503001502 | 21 | 287 | 9.7 | 17.7 | 0.00 | 0.00 | 0.00 | 60 | 1013.7 |
| 20260503000003 | 21 | 271 | 6.4 | 25.7 | 0.00 | 0.00 | 0.00 | 61 | 1013.8 |
| 20260502234559 | 21 | 295 | 4.8 | 14.5 | 0.00 | 0.00 | 0.00 | 61 | 1013.9 |
| 20260502233053 | 22 | 276 | 9.7 | 20.9 | 0.00 | 0.00 | 0.00 | 57 | 1014.1 |
| 20260502231551 | 22 | 283 | 6.4 | 16.1 | 0.00 | 0.00 | 0.00 | 60 | 1014.3 |
| 20260502230027 | 20 | 305 | 9.7 | 19.3 | 0.00 | 0.00 | 0.00 | 63 | 1014.4 |
| 20260502224510 | 20 | 283 | 4.8 | 16.1 | 0.00 | 0.00 | 0.00 | 64 | 1014.6 |
| 20260502223059 | 20 | 294 | 4.8 | 17.7 | 0.00 | 0.00 | 0.00 | 64 | 1014.8 |
| 20260502223001 | 20 | 260 | 4.8 | 17.7 | 0.00 | 0.00 | 0.00 | 64 | 1014.8 |
| 20260502221558 | 19 | 266 | 8.0 | 17.7 | 0.00 | 0.00 | 0.00 | 63 | 1014.9 |
| 20260502220049 | 19 | 251 | 6.4 | 14.5 | 0.00 | 0.00 | 0.00 | 63 | 1015.1 |
| 20260502214546 | 19 | 242 | 8.0 | 16.1 | 0.00 | 0.00 | 0.00 | 61 | 1015.2 |
| 20260502213045 | 20 | 288 | 8.0 | 17.7 | 0.00 | 0.00 | 0.00 | 61 | 1015.2 |
| 20260502211536 | 21 | 221 | 4.8 | 12.9 | 0.00 | 0.00 | 0.00 | 54 | 1015.3 |
| 20260502210018 | 21 | 287 | 1.6 | 12.9 | 0.00 | 0.00 | 0.00 | 58 | 1015.4 |
| 20260502204505 | 19 | 195 | 3.2 | 14.5 | 0.00 | 0.00 | 0.00 | 63 | 1015.5 |
| 20260502203005 | 19 | 261 | 3.2 | 9.7 | 0.00 | 0.00 | 0.00 | 63 | 1015.6 |
| 20260502201551 | 18 | 273 | 1.6 | 9.7 | 0.00 | 0.00 | 0.00 | 66 | 1015.6 |
| 20260502200049 | 18 | 293 | 0.0 | 8.0 | 0.00 | 0.00 | 0.00 | 68 | 1015.9 |
| 20260502194551 | 18 | 250 | 1.6 | 8.0 | 0.00 | 0.00 | 0.00 | 67 | 1016.0 |